This is the latest recevied weather packets stored in our database for station/object VK5TRM-13. If no packets are shown the sender has not sent any weather packets the latest 10 day(s).
| Time | Temp. | Humidity | Pressure | Rain* | Wind** | Luminosity | Snow |
|---|---|---|---|---|---|---|---|
| 1778249704 | 12.78° C | 84% | 1029.1 hPa | 0 mm | - | - | - |
| 1778248804 | 13.33° C | 81% | 1029.2 hPa | 0 mm | - | - | - |
| 1778247905 | 13.33° C | 81% | 1029.2 hPa | 0 mm | - | - | - |
| 1778247005 | 13.33° C | 81% | 1029.5 hPa | 0 mm | - | - | - |
| 1778246105 | 13.33° C | 81% | 1029.5 hPa | 0 mm | - | - | - |
| 1778245205 | 13.89° C | 77% | 1029.5 hPa | 0 mm | - | - | - |
| 1778244305 | 13.89° C | 77% | 1029.5 hPa | 0 mm | - | - | - |
| 1778243404 | 13.89° C | 75% | 1029.5 hPa | 0 mm | - | - | - |
| 1778242504 | 13.89° C | 75% | 1029.5 hPa | 0 mm | - | - | - |
| 1778241604 | 14.44° C | 73% | 1029.3 hPa | 0 mm | - | - | - |
| 1778240704 | 14.44° C | 73% | 1029.3 hPa | 0 mm | - | - | - |
| 1778239805 | 15° C | 68% | 1029.3 hPa | 0 mm | - | - | - |
| 1778238905 | 15° C | 68% | 1029.3 hPa | 0 mm | - | - | - |
| 1778238004 | 15.56° C | 65% | 1029.3 hPa | 0 mm | - | - | - |
| 1778237104 | 15.56° C | 65% | 1029.3 hPa | 0 mm | - | - | - |
| 1778236204 | 15.56° C | 67% | 1029.1 hPa | 0 mm | - | - | - |
| 1778235304 | 15.56° C | 67% | 1029.1 hPa | 0 mm | - | - | - |
| 1778234405 | 15.56° C | 64% | 1028.8 hPa | 0 mm | - | - | - |
| 1778233505 | 15.56° C | 64% | 1028.8 hPa | 0 mm | - | - | - |
| 1778232605 | 16.11° C | 62% | 1028.6 hPa | 0 mm | - | - | - |
| 1778231705 | 16.11° C | 62% | 1028.6 hPa | 0 mm | - | - | - |
| 1778230805 | 16.67° C | 61% | 1028.2 hPa | 0 mm | - | - | - |
| 1778229905 | 16.67° C | 61% | 1028.2 hPa | 0 mm | - | - | - |
| 1778229005 | 16.67° C | 65% | 1028 hPa | 0 mm | - | - | - |
| 1778228104 | 16.67° C | 65% | 1028 hPa | 0 mm | - | - | - |
* Rain since midnight (hover to see other rain measurements)
** Current wind speed in m/s (hover to see current wind gust speed)